FIN13 EGCC-EFHK

Flight info

Callsign FIN13
Flight time N/A
Altitude 30000
Route DESIG L603 LAMIX UT29 LIBSO UL975 ROPAL DCT LESRA L975 GOLUM N866 KEMEG DCT ETVOK DCT DETNA N866 INVOL DCT DETSO DCT TUSNI DCT IBVUT Y363 LAKUT
Aircraft A359/H-SDE2E3GHIJ3J4J5LM1ORWXY/LB1D1

Departure

Time 2026-05-06 12:26
Airport Manchester Airport (EGCC)

Arrival

Time N/A
Airport Helsinki Vantaa Airport (EFHK)
Time Latitude Longitude Altitude Speed Heading
2026-05-06 12:02 53.35894 -2.27393 250 ft 0 kts 275°
2026-05-06 12:14 53.35893 -2.27370 249 ft 3 kts 268°
2026-05-06 12:14 53.35894 -2.27338 249 ft 3 kts 268°
2026-05-06 12:14 53.35894 -2.27325 249 ft 0 kts 268°
2026-05-06 12:19 53.35888 -2.27337 249 ft 3 kts 235°
2026-05-06 12:19 53.35859 -2.27334 249 ft 10 kts 173°
2026-05-06 12:19 53.35811 -2.27324 249 ft 7 kts 172°
2026-05-06 12:19 53.35745 -2.27397 250 ft 19 kts 233°
2026-05-06 12:20 53.35649 -2.27604 253 ft 24 kts 231°
2026-05-06 12:20 53.35597 -2.27693 254 ft 0 kts 223°
2026-05-06 12:20 53.35595 -2.27696 254 ft 3 kts 223°
2026-05-06 12:20 53.35550 -2.27768 255 ft 17 kts 225°
2026-05-06 12:21 53.35422 -2.27980 258 ft 31 kts 224°
2026-05-06 12:21 53.35317 -2.28148 260 ft 11 kts 223°
2026-05-06 12:21 53.35263 -2.28244 261 ft 11 kts 227°
2026-05-06 12:21 53.35207 -2.28347 262 ft 13 kts 227°
2026-05-06 12:22 53.35151 -2.28466 263 ft 14 kts 232°
2026-05-06 12:22 53.35068 -2.28642 265 ft 22 kts 231°
2026-05-06 12:22 53.34962 -2.28838 268 ft 23 kts 226°
2026-05-06 12:22 53.34848 -2.29035 270 ft 24 kts 227°
2026-05-06 12:23 53.34737 -2.29248 273 ft 25 kts 228°
2026-05-06 12:23 53.34695 -2.29308 273 ft 0 kts 213°
2026-05-06 12:24 53.34693 -2.29308 274 ft 1 kts 202°
2026-05-06 12:24 53.34633 -2.29340 275 ft 17 kts 188°
2026-05-06 12:24 53.34551 -2.29287 277 ft 8 kts 133°
2026-05-06 12:24 53.34541 -2.29218 276 ft 4 kts 82°
2026-05-06 12:25 53.34566 -2.29162 275 ft 19 kts 52°
2026-05-06 12:25 53.34821 -2.28639 271 ft 94 kts 51°
2026-05-06 12:25 53.35373 -2.27494 276 ft 154 kts 53°
2026-05-06 12:25 53.36053 -2.26002 850 ft 166 kts 53°
2026-05-06 12:26 53.36735 -2.24430 1680 ft 172 kts 55°
2026-05-06 12:26 53.37466 -2.22697 2234 ft 190 kts 56°
2026-05-06 12:26 53.38232 -2.20841 2891 ft 203 kts 54°
2026-05-06 12:26 53.39070 -2.18849 3579 ft 216 kts 55°
2026-05-06 12:27 53.39949 -2.16735 4313 ft 226 kts 54°
2026-05-06 12:27 53.40995 -2.14650 4827 ft 244 kts 46°
2026-05-06 12:27 53.42187 -2.12521 5051 ft 252 kts 47°
2026-05-06 12:27 53.43358 -2.10299 5463 ft 257 kts 48°
2026-05-06 12:28 53.44514 -2.07985 6405 ft 259 kts 49°
2026-05-06 12:28 53.45654 -2.05642 7335 ft 261 kts 49°
2026-05-06 12:28 53.46792 -2.03265 8210 ft 268 kts 50°
2026-05-06 12:28 53.47965 -2.00788 9110 ft 274 kts 49°
2026-05-06 12:29 53.49158 -1.98253 9998 ft 280 kts 50°
2026-05-06 12:29 53.50350 -1.95568 10592 ft 297 kts 53°
2026-05-06 12:29 53.51496 -1.92520 10996 ft 322 kts 59°
2026-05-06 12:29 53.52224 -1.88824 11385 ft 346 kts 82°
2026-05-06 12:30 53.52066 -1.84723 12073 ft 358 kts 98°
2026-05-06 12:30 53.51506 -1.80594 12813 ft 367 kts 104°
2026-05-06 12:30 53.50761 -1.76439 13595 ft 374 kts 107°
2026-05-06 12:30 53.49941 -1.72270 14402 ft 378 kts 108°
2026-05-06 12:31 53.49122 -1.68125 15145 ft 382 kts 108°
2026-05-06 12:31 53.48299 -1.63851 15856 ft 387 kts 107°
2026-05-06 12:31 53.47490 -1.59518 16609 ft 391 kts 107°
2026-05-06 12:31 53.46694 -1.55120 17417 ft 395 kts 107°
2026-05-06 12:32 53.45898 -1.50682 18230 ft 400 kts 107°
2026-05-06 12:32 53.45089 -1.46173 18888 ft 406 kts 107°
2026-05-06 12:32 53.44272 -1.41625 19630 ft 409 kts 107°
2026-05-06 12:32 53.43445 -1.37037 20362 ft 412 kts 107°
2026-05-06 12:33 53.42609 -1.32408 21046 ft 417 kts 107°
2026-05-06 12:33 53.41763 -1.27739 21703 ft 422 kts 107°
2026-05-06 12:33 53.40922 -1.23072 22436 ft 425 kts 107°
2026-05-06 12:33 53.40065 -1.18321 23137 ft 429 kts 107°
2026-05-06 12:34 53.39192 -1.13515 23764 ft 433 kts 108°
2026-05-06 12:34 53.38301 -1.08660 24315 ft 437 kts 108°
2026-05-06 12:34 53.37403 -1.03786 24885 ft 441 kts 108°
2026-05-06 12:34 53.36491 -0.98850 25401 ft 445 kts 108°
2026-05-06 12:35 53.35569 -0.93865 25932 ft 450 kts 108°
2026-05-06 12:35 53.34642 -0.88859 26505 ft 453 kts 109°
2026-05-06 12:35 53.33707 -0.83816 27071 ft 456 kts 109°
2026-05-06 12:35 53.32799 -0.78780 27599 ft 460 kts 106°
2026-05-06 12:36 53.32208 -0.73497 28123 ft 465 kts 97°
2026-05-06 12:36 53.32139 -0.68064 28622 ft 470 kts 86°
2026-05-06 12:36 53.32673 -0.62644 29120 ft 475 kts 75°
2026-05-06 12:36 53.33784 -0.57424 29604 ft 479 kts 67°
2026-05-06 12:37 53.35124 -0.52309 30083 ft 482 kts 65°
2026-05-06 12:37 53.36558 -0.47202 30485 ft 486 kts 64°
2026-05-06 12:37 53.38029 -0.42091 30871 ft 490 kts 64°
2026-05-06 12:37 53.39513 -0.36935 31033 ft 489 kts 64°
2026-05-06 12:38 53.42417 -0.26754 31047 ft 486 kts 64°
2026-05-06 12:38 53.45310 -0.16497 31069 ft 487 kts 64°
2026-05-06 12:39 53.48177 -0.06229 31066 ft 487 kts 65°
2026-05-06 12:39 53.51055 0.03984 31028 ft 487 kts 62°
2026-05-06 12:40 53.55062 0.13060 31043 ft 484 kts 43°
2026-05-06 12:40 53.59947 0.20854 31026 ft 484 kts 41°
2026-05-06 12:41 53.64948 0.28438 31026 ft 484 kts 40°
2026-05-06 12:41 53.69951 0.36032 31026 ft 484 kts 40°
2026-05-06 12:42 53.74898 0.43621 31039 ft 484 kts 41°
2026-05-06 12:42 53.79871 0.51302 31025 ft 485 kts 41°
2026-05-06 12:43 53.84862 0.59041 31033 ft 486 kts 41°
2026-05-06 12:43 53.89480 0.67394 31029 ft 489 kts 54°
2026-05-06 12:44 53.93267 0.76878 31025 ft 489 kts 56°
2026-05-06 12:44 53.96935 0.86603 31027 ft 489 kts 57°
2026-05-06 12:45 54.00579 0.96359 31033 ft 489 kts 57°
2026-05-06 12:46 54.06053 1.10995 31029 ft 489 kts 57°
2026-05-06 12:46 54.09699 1.20766 31028 ft 488 kts 57°
2026-05-06 12:47 54.13335 1.30545 31027 ft 488 kts 57°
2026-05-06 12:47 54.16937 1.40272 31031 ft 488 kts 57°
2026-05-06 12:48 54.20560 1.50096 31033 ft 488 kts 57°
2026-05-06 12:48 54.24169 1.59921 31026 ft 489 kts 57°
2026-05-06 12:49 54.27773 1.69773 31028 ft 488 kts 58°
2026-05-06 12:49 54.31345 1.79574 31031 ft 488 kts 58°
2026-05-06 12:50 54.34930 1.89451 31037 ft 488 kts 58°
2026-05-06 12:50 54.38509 1.99351 31031 ft 488 kts 58°
2026-05-06 12:51 54.42080 2.09267 31030 ft 488 kts 58°
2026-05-06 12:51 54.45619 2.19135 31034 ft 488 kts 58°
2026-05-06 12:52 54.49167 2.29068 31037 ft 488 kts 58°
2026-05-06 12:52 54.52717 2.39047 31037 ft 490 kts 58°
2026-05-06 12:53 54.56267 2.49067 31035 ft 490 kts 58°
2026-05-06 12:53 54.59809 2.59105 31033 ft 490 kts 58°
2026-05-06 12:54 54.63315 2.69080 31035 ft 490 kts 58°
2026-05-06 12:54 54.66840 2.79150 31036 ft 490 kts 59°
2026-05-06 12:55 54.70354 2.89233 31034 ft 490 kts 59°
2026-05-06 12:55 54.73862 2.99338 31039 ft 491 kts 59°
2026-05-06 12:56 54.77635 3.09115 31034 ft 492 kts 53°
2026-05-06 12:56 54.81694 3.18656 31037 ft 492 kts 53°
2026-05-06 12:57 54.85779 3.28156 31027 ft 492 kts 53°
2026-05-06 12:57 54.89870 3.37707 31031 ft 492 kts 53°
2026-05-06 12:58 54.93941 3.47268 31035 ft 492 kts 53°
2026-05-06 12:58 54.97981 3.56803 31034 ft 493 kts 53°
2026-05-06 12:59 55.02049 3.66442 31034 ft 494 kts 53°
2026-05-06 12:59 55.06117 3.76118 31031 ft 494 kts 53°
2026-05-06 13:00 55.10170 3.85796 31029 ft 495 kts 54°
2026-05-06 13:00 55.13943 3.95738 31031 ft 494 kts 64°
2026-05-06 13:01 55.16772 4.06703 31030 ft 494 kts 68°
2026-05-06 13:01 55.19417 4.17793 31051 ft 494 kts 69°
2026-05-06 13:02 55.22031 4.28929 31020 ft 495 kts 69°
2026-05-06 13:02 55.24655 4.40096 31020 ft 495 kts 69°
2026-05-06 13:03 55.27263 4.51205 31018 ft 497 kts 69°
2026-05-06 13:03 55.29887 4.62429 31020 ft 497 kts 69°
2026-05-06 13:04 55.32503 4.73675 31019 ft 497 kts 69°
2026-05-06 13:04 55.35104 4.84925 31018 ft 497 kts 69°
2026-05-06 13:05 55.37680 4.96121 31019 ft 497 kts 69°
2026-05-06 13:05 55.40259 5.07400 31021 ft 497 kts 69°
2026-05-06 13:06 55.42830 5.18698 31022 ft 498 kts 69°
2026-05-06 13:06 55.45696 5.29801 31020 ft 500 kts 59°
2026-05-06 13:07 55.49374 5.40095 31019 ft 500 kts 57°
2026-05-06 13:07 55.53201 5.50334 31018 ft 500 kts 57°
2026-05-06 13:08 55.57037 5.60578 31012 ft 501 kts 57°
2026-05-06 13:08 55.60873 5.70913 31018 ft 503 kts 57°
2026-05-06 13:09 55.64666 5.81210 31017 ft 503 kts 58°
2026-05-06 13:09 55.68480 5.91613 31019 ft 504 kts 58°
2026-05-06 13:10 55.72286 6.02033 31019 ft 504 kts 58°
2026-05-06 13:10 55.76083 6.12476 31014 ft 504 kts 58°
2026-05-06 13:11 55.79874 6.22944 31004 ft 505 kts 58°
2026-05-06 13:11 55.83678 6.33495 31004 ft 507 kts 58°
2026-05-06 13:12 55.87452 6.44007 31004 ft 508 kts 58°
2026-05-06 13:12 55.91244 6.54614 31004 ft 507 kts 58°
2026-05-06 13:13 55.95024 6.65233 31005 ft 507 kts 58°
2026-05-06 13:13 55.98796 6.75873 31004 ft 507 kts 59°
2026-05-06 13:14 56.02537 6.86479 30995 ft 507 kts 59°
2026-05-06 13:14 56.06285 6.97149 30999 ft 507 kts 59°
2026-05-06 13:15 56.10026 7.07845 31004 ft 507 kts 59°
2026-05-06 13:15 56.13766 7.18588 30996 ft 510 kts 59°
2026-05-06 13:16 56.17489 7.29328 30997 ft 511 kts 59°
2026-05-06 13:16 56.21229 7.40161 30988 ft 511 kts 59°
2026-05-06 13:17 56.24964 7.51023 30986 ft 510 kts 59°
2026-05-06 13:17 56.28676 7.61865 30985 ft 509 kts 59°
2026-05-06 13:18 56.32349 7.72669 30988 ft 509 kts 59°
2026-05-06 13:18 56.36043 7.83577 30980 ft 511 kts 60°
2026-05-06 13:19 56.39746 7.94554 30980 ft 513 kts 60°
2026-05-06 13:19 56.43443 8.05561 30980 ft 512 kts 60°
2026-05-06 13:20 56.47126 8.16578 30972 ft 512 kts 60°
2026-05-06 13:20 56.50842 8.27426 30971 ft 511 kts 58°
2026-05-06 13:21 56.54740 8.38208 30960 ft 511 kts 57°
2026-05-06 13:21 56.58637 8.49018 30964 ft 514 kts 58°
2026-05-06 13:22 56.62495 8.59873 30961 ft 515 kts 58°
2026-05-06 13:22 56.66358 8.70840 30960 ft 515 kts 58°
2026-05-06 13:23 56.70209 8.81830 30956 ft 514 kts 58°
2026-05-06 13:23 56.74441 8.92315 30959 ft 514 kts 51°
2026-05-06 13:24 56.78979 9.02361 30979 ft 514 kts 50°
2026-05-06 13:24 56.83547 9.12341 30960 ft 517 kts 50°
2026-05-06 13:25 56.88150 9.22450 30955 ft 517 kts 50°
2026-05-06 13:25 56.92740 9.32598 30960 ft 517 kts 50°
2026-05-06 13:26 56.97318 9.42778 30961 ft 517 kts 50°
2026-05-06 13:26 57.01880 9.52964 30990 ft 516 kts 51°
2026-05-06 13:27 57.06390 9.63127 30958 ft 519 kts 52°
2026-05-06 13:27 57.10547 9.73985 30969 ft 519 kts 57°
2026-05-06 13:28 57.14524 9.85076 30960 ft 519 kts 57°
2026-05-06 13:28 57.18547 9.96123 30968 ft 519 kts 56°
2026-05-06 13:29 57.22589 10.07068 30953 ft 519 kts 56°
2026-05-06 13:29 57.26665 10.18093 30948 ft 521 kts 56°
2026-05-06 13:30 57.30740 10.29171 30963 ft 521 kts 56°
2026-05-06 13:30 57.34806 10.40283 30952 ft 521 kts 56°
2026-05-06 13:31 57.38857 10.51411 30956 ft 521 kts 56°
2026-05-06 13:31 57.42868 10.62483 30957 ft 521 kts 57°
2026-05-06 13:32 57.46902 10.73669 30981 ft 521 kts 57°
2026-05-06 13:32 57.50937 10.84907 30961 ft 525 kts 57°
2026-05-06 13:33 57.54979 10.96220 30956 ft 523 kts 57°
2026-05-06 13:33 57.59084 11.07391 30960 ft 523 kts 52°
2026-05-06 13:34 57.63588 11.17918 30954 ft 522 kts 51°
2026-05-06 13:34 57.67723 11.29054 30956 ft 522 kts 58°
2026-05-06 13:35 57.71579 11.40587 30965 ft 525 kts 59°
2026-05-06 13:35 57.75398 11.52272 30962 ft 527 kts 59°
2026-05-06 13:36 57.79186 11.63925 30965 ft 527 kts 59°
2026-05-06 13:36 57.83001 11.75692 30968 ft 528 kts 59°
2026-05-06 13:37 57.86801 11.87456 30949 ft 527 kts 59°
2026-05-06 13:37 57.90599 11.99268 30962 ft 527 kts 59°
2026-05-06 13:38 57.94363 12.11037 30959 ft 530 kts 59°
2026-05-06 13:38 57.98160 12.22970 30944 ft 531 kts 60°
2026-05-06 13:39 58.01948 12.34932 30915 ft 531 kts 60°
2026-05-06 13:39 58.05712 12.46881 30936 ft 529 kts 60°
2026-05-06 13:40 58.09462 12.58848 30938 ft 529 kts 60°
2026-05-06 13:40 58.13170 12.70743 30935 ft 529 kts 60°
2026-05-06 13:41 58.16897 12.82756 30922 ft 529 kts 60°
2026-05-06 13:41 58.20608 12.94779 30937 ft 529 kts 60°
2026-05-06 13:42 58.24313 13.06845 30919 ft 529 kts 60°
2026-05-06 13:42 58.27967 13.18804 30929 ft 526 kts 61°
2026-05-06 13:43 58.31620 13.30824 30924 ft 525 kts 61°
2026-05-06 13:43 58.35263 13.42876 30925 ft 527 kts 61°
2026-05-06 13:44 58.38923 13.55048 30919 ft 530 kts 61°
2026-05-06 13:44 58.42584 13.67278 30942 ft 531 kts 61°
2026-05-06 13:45 58.46205 13.79443 30928 ft 531 kts 62°
2026-05-06 13:45 58.51643 13.97830 30937 ft 528 kts 62°
2026-05-06 13:46 58.55241 14.10082 30985 ft 528 kts 62°
2026-05-06 13:46 58.58843 14.22413 30950 ft 532 kts 62°
2026-05-06 13:47 58.62450 14.34700 30958 ft 533 kts 62°
2026-05-06 13:47 58.66162 14.47014 30958 ft 533 kts 61°
2026-05-06 13:48 58.69866 14.59334 30952 ft 533 kts 61°
2026-05-06 13:48 58.73547 14.71702 30957 ft 532 kts 62°
2026-05-06 13:49 58.77184 14.84020 30963 ft 533 kts 62°
2026-05-06 13:49 58.80846 14.96497 30956 ft 535 kts 62°